Location: Harwich
(41.6860°N, 70.0760°W)
Time: 04:48:37
(UTC-04:00)

Cosmos 2228 - Visible Passes

Search period start: 25 April 2015 00:00
Search period end: 05 May 2015 00:00
Orbit: 593 x 622 km, 82.5° (Epoch: 25 April)

Date Brightness Start Highest point End Pass type
(mag) Time Alt. Az. Time Alt. Az. Time Alt. Az.
25 Apr 5.7 00:35:35 10° NNW 00:36:36 16° NNW 00:36:36 16° NNW visible
25 Apr 5.5 23:12:12 10° NNE 23:13:26 16° NNE 23:13:26 16° NNE visible
26 Apr 5.8 00:49:45 10° NNW 00:50:21 13° NW 00:50:21 13° NW visible
26 Apr 5.2 23:25:34 10° N 23:27:13 21° NNE 23:27:13 21° NNE visible
27 Apr 5.1 23:39:10 10° N 23:40:59 24° N 23:40:59 24° N visible
28 Apr 5.6 22:17:42 10° NE 22:17:51 10° NE 22:17:51 10° NE visible
28 Apr 5.2 23:52:58 10° NNW 23:54:46 24° NNW 23:54:46 24° NNW visible
29 Apr 5.2 22:30:03 10° NNE 22:31:38 16° NE 22:31:38 16° NE visible
30 Apr 5.4 00:06:58 10° NNW 00:08:33 20° NW 00:08:33 20° NW visible
30 Apr 4.8 22:43:13 10° NNE 22:45:26 24° NE 22:45:26 24° NE visible
01 May 5.6 00:21:16 10° NW 00:22:21 15° NW 00:22:21 15° NW visible
01 May 4.5 22:56:41 10° N 22:59:14 32° NNE 22:59:14 32° NNE visible
02 May 4.3 23:10:21 10° N 23:13:02 38° N 23:13:02 38° N visible
03 May 5.1 21:48:04 10° NE 21:49:56 14° ENE 21:49:56 14° ENE visible
03 May 4.6 23:24:12 10° NNW 23:26:51 33° NW 23:26:51 33° NW visible
04 May 4.6 22:00:53 10° NNE 22:03:45 23° ENE 22:03:45 23° ENE visible
04 May 5.0 23:38:18 10° NNW 23:40:41 23° WNW 23:40:41 23° WNW visible
